User: anonymous   Login
Location: Young's Pond
(41.2695°N, 72.7766°W)
Time: 23:35:37
(UTC-04:00)
Language:

Spot 4 - Orbit

View from above orbital plane
View from above orbital plane
View from above satellite
View from above satellite

Ground track
Ground track

The orbit data is extracted from the following two-line orbital elements,

1 25260U 98017A   16270.53710525  .00000092  00000-0  33180-4 0  9994
2 25260  98.3740 347.5370 0013357   9.0884 351.0553 14.53431412963553
Epoch (UTC): 26 September 2016 12:53:25
Eccentricity: 0.0013357
inclination: 98.3740°
perigee height: 705 km
apogee height: 724 km
right ascension of ascending node: 347.5370°
argument of perigee: 9.0884°
revolutions per day: 14.53431412
mean anomaly at epoch: 351.0553°
orbit number at epoch: 96355

The dashed part of the orbit path shows where the satellite is in the earth's shadow,  

DLR